Location: Arroyo de Valdeoliva
(40.1604°N, 4.9878°W)
Time: 21:11:19
(UTC+00:00)

SPOT 1/Viking Rocket - Pass Details

Date: 11 March 2026
Orbit: 773 x 788 km, 98.2° (Epoch: 11 April)

Event Time Altitude Azimuth Distance (km) Brightness Sun altitude
Rises 05:58:09 0° 31° (NNE) 3,290 7.3 -8.5°
Reaches altitude 10° 06:01:23 10° 52° (NE) 2,356 6.9 -7.9°
Maximum altitude 06:04:37 16° 91° (E) 1,937 7.1 -7.2°
Drops below altitude 10° 06:07:49 10° 130° (SE) 2,344 6.8 -6.6°
Sets 06:11:00 0° 151° (SSE) 3,265 7.2 -6.0°
